Hlavní strana
METAR-TAF:

METAR-TAF

Letiště :

Nashville, Tennessee, Spojené státy americké

zeměpisná šířka: 36-10-56N, zeměpisná délka: 086-53-12W, výška: 151 m

Aktuální stav počasí

Zpráva byla vytvořena před 23 minutami, v 19:15 UTC
Severní vítr 9 kt s nárazy do 15 kt
Teplota 13°C
Vlhkost vzduchu 88%
Tlak 1017 hPa
Viditelnost: 16.1 km
Zataženo ve výšce 1400 ft

METAR: KJWN 181915Z AUTO 36009G15KT 10SM OVC014 13/11 A3004 RMK A01

Čas: 13:38 (19:38 UTC)


TAF: chybějící

Stav a předpovědi počasí z více než 4 000 letišť (zprávy METAR a TAF).

Červené a žluté tečky na mapě představují dostupné meteorologické stanice.

Když kurzor umístíte na tečku, zobrazí se název stanice.

Pak kliknutím zobrazíte stav a předpověď počasí.

Chcete-li změnit mapu, kliknutím na zelené tlačítko se znaménkem +mapu přiblížíte, kliknutím na zelené tlačítko se znaménkem – mapu oddálíte a kliknutím na zelené šipky přejdete na sousední mapy.


METAR-TAF: